This demonstration page uses our WeatherBlox Daily Observations layout. Learn more.

Left ArrowRight Arrow

Hourly Observations for February 13, 2019

Temp ( °F °C ) Dew Point ( °F °C ) Humidity (%) Winds ( mph kmh ) Pressure ( in mb ) Visibility ( mi km ) Precip ( " mm )
12:52 am 00:52 Partly Cloudy 9 -12.8 1 -17.2 70 70 NW 3 6 30.23 1024 10 16 0.00 0.00
1:52 am 01:52 Mostly Cloudy 8 -13.3 1 -17.2 73 73 N 8 13 30.22 1023 10 16 0.00 0.00
2:52 am 02:52 Mostly Cloudy 8 -13.3 1 -17.2 73 73 N 6 9 30.20 1023 10 16 0.00 0.00
3:52 am 03:52 Mostly Cloudy 7 -13.9 0 -17.8 73 73 W 6 9 30.19 1022 10 16 0.00 0.00
4:52 am 04:52 Mostly Cloudy 7 -13.9 0 -17.8 73 73 ENE 3 6 30.16 1022 10 16 0.00 0.00
5:52 am 05:52 Mostly Cloudy 8 -13.3 1 -17.2 73 73 ESE 7 11 30.15 1021 10 16 0.00 0.00
6:52 am 06:52 Cloudy 9 -12.8 1 -17.2 70 70 ESE 5 7 30.11 1020 10 16 0.00 0.00
7:52 am 07:52 Cloudy 10 -12.2 1 -17.2 67 67 SE 8 13 30.09 1019 10 16 0.00 0.00
8:52 am 08:52 Cloudy 11 -11.7 2 -16.7 67 67 SSE 3 6 30.08 1019 10 16 0.00 0.00
9:52 am 09:52 Cloudy 14 -10 3 -16.1 61 61 SE 9 15 30.05 1018 10 16 0.00 0.00
10:52 am 10:52 Cloudy 19 -7.2 6 -14.4 57 57 SE 9 15 30.00 1016 10 16 0.00 0.00
11:52 am 11:52 Cloudy 24 -4.4 11 -11.7 57 57 SSE 14 22 29.95 1014 10 16 0.00 0.00
12:52 pm 12:52 Cloudy N/A N/A N/A VRB 3 6 N/A 10 16 0.00 0.00
1:52 pm 13:52 Cloudy 29 -1.7 17 -8.3 61 61 SSE 16 26 29.83 1010 10 16 0.00 0.00
2:52 pm 14:52 Cloudy 31 -0.6 19 -7.2 61 61 SSE 14 22 29.80 1009 10 16 0.00 0.00
3:52 pm 15:52 Cloudy 33 0.6 22 -5.6 64 64 SSE 14 22 29.75 1008 10 16 0.00 0.00
4:52 pm 16:52 Cloudy 33 0.6 24 -4.4 70 70 SSE 14 22 29.74 1007 10 16 0.00 0.00
5:52 pm 17:52 Cloudy 31 -0.6 23 -5 72 72 SE 12 19 29.69 1006 10 16 0.00 0.00
6:52 pm 18:52 Cloudy 31 -0.6 24 -4.4 76 76 SSE 15 24 29.67 1005 10 16 0.00 0.00
7:52 pm 19:52 Cloudy 32 0 25 -3.9 75 75 SSE 13 20 29.67 1005 10 16 0.00 0.00
8:52 pm 20:52 Cloudy 32 0 26 -3.3 79 79 S 10 17 29.65 1004 10 16 0.00 0.00
9:52 pm 21:52 Cloudy 33 0.6 27 -2.8 78 78 SSE 8 13 29.61 1003 10 16 0.00 0.00
10:52 pm 22:52 Cloudy 32 0 26 -3.3 79 79 S 6 9 29.59 1002 10 16 0.00 0.00
11:52 pm 23:52 Cloudy 32 0 27 -2.8 82 82 S 6 9 29.56 1001 10 16 0.00 0.00

Powered by AerisWeather